CAPE
0 0 0 0 0 0 0 0 0 0 0 0 0 0 0 0 0 0 540 1523 1439 1689 1947 1474 1143 1423 1719 1783 1826 2036 2184 2127 2100 2073 2049 2072 2089 2065 1847 1794 1960 1977 1976 1907 1582 1617 1552 1443 1348
0 0 0 0 0 0 0 0 0 0 0 0 0 0 0 0 0 120 1138 1392 1434 1535 2040 1940 1227 1438 1797 1891 1986 2119 2296 2318 2212 2106 2131 2173 2158 2015 1844 1826 1932 2000 2108 2182 1822 1579 1547 1367 1240
0 0 0 0 0 0 0 0 0 0 0 0 0 0 0 0 178 194 620 1532 1562 1647 1896 2001 1274 1359 1769 1900 1944 1961 2201 2232 2182 2194 2304 2301 2168 2050 1969 1862 1951 2093 2151 2227 1909 1594 1502 1265 1029
0 0 0 0 0 0 0 0 0 0 0 0 0 0 0 0 400 412 807 1536 1584 1762 1828 1624 1130 1184 1699 1826 1917 1835 1926 2026 2134 2133 2297 2324 2202 2115 1918 1865 1987 2177 2169 2050 1766 1437 1359 991 826
0 0 0 0 0 0 0 0 0 0 0 0 0 0 0 5 497 958 1222 1709 1785 2010 2046 1989 1082 1177 1415 1842 1941 1882 1709 1921 2093 2142 2173 2165 2105 1982 1612 1795 1860 1924 1956 1833 1607 1455 1086 856 674
0 0 0 0 0 0 0 0 0 0 0 0 0 0 0 160 541 1139 1595 1962 2244 2226 2260 2228 1458 1400 1425 1582 1688 1771 1575 1532 1889 2035 1848 1842 1583 1652 1371 1295 1623 1664 1301 1241 1372 1115 920 699 512
0 0 0 0 0 0 0 0 0 0 0 0 0 0 0 16 648 1486 1770 2055 2456 2398 2386 2390 1888 1764 1335 1345 1463 1434 1601 1322 1167 1488 1169 922 646 862 703 688 820 1107 1038 1191 1126 923 721 532 349
0 0 0 0 0 0 0 0 0 0 0 0 0 0 0 0 859 1754 1913 1939 2164 2604 2680 1955 2092 1921 2099 2000 1207 1284 1110 996 972 920 532 353 351 335 260 221 429 554 972 1019 906 710 507 342 291
0 0 0 0 0 0 0 0 0 0 0 0 0 0 0 0 522 1750 2015 1945 2066 2394 2511 2283 2197 1936 2033 2196 1979 1270 1077 818 623 512 348 445 615 294 383 280 424 486 567 633 576 465 337 285 223
0 0 0 0 0 0 0 0 0 0 0 0 0 0 0 0 111 1388 1677 1811 2123 2250 2300 2341 1946 2279 1977 1931 2145 1991 1710 1243 1051 1047 881 1006 507 379 494 279 339 286 243 341 266 320 272 250 212
0 0 0 0 0 0 0 0 0 0 0 0 0 0 0 0 0 429 1467 1459 1857 1948 2008 2142 2325 2209 2126 1877 1756 2042 1636 1394 1371 1173 842 859 555 328 78 151 396 296 195 298 246 282 386 335 250
0 0 0 0 0 0 0 0 0 0 0 0 0 0 0 0 0 9 503 1439 1646 1885 1886 1913 1717 1674 1724 1818 1530 1559 1605 1524 1481 1240 938 518 442 234 145 124 207 144 244 183 471 685 423 331 182
0 0 0 0 0 0 0 0 0 0 0 0 0 0 0 0 0 0 9 503 1507 1796 1808 1853 1535 1258 1343 1478 1181 1372 1438 998 1068 1194 1102 574 382 424 328 334 233 98 137 117 590 350 291 250 225
0 0 0 0 0 0 0 0 0 0 0 0 0 0 0 0 0 0 0 268 1202 1669 1854 1884 1540 1325 1369 1147 756 1137 1161 917 731 722 966 888 534 333 184 146 243 109 49 89 345 246 286 237 209
0 0 0 0 0 0 0 0 0 0 0 0 0 0 0 0 0 0 0 433 1163 1591 1780 1812 1331 1052 1132 1132 570 900 573 810 691 542 568 325 246 319 125 105 158 90 44 71 234 244 201 181 165
0 0 0 0 0 0 0 0 0 0 0 0 0 0 0 0 0 0 63 534 1147 1555 1695 1556 1022 1210 1211 730 611 626 778 640 397 255 273 179 189 258 200 115 78 45 51 57 185 172 161 154 162
0 0 0 0 0 0 0 0 0 0 0 0 0 0 0 0 0 0 177 754 1248 1577 1720 1560 1141 1025 848 495 323 336 392 97 163 182 145 155 199 188 217 135 117 28 40 50 145 173 192 150 153
0 0 0 0 0 0 0 0 0 0 0 0 0 0 0 0 0 0 168 843 1300 1516 1752 1470 840 851 652 440 151 317 151 56 57 119 121 35 70 91 75 161 28 33 26 6 125 194 173 180 165
0 0 0 0 0 0 0 0 0 0 0 0 0 0 0 0 0 0 113 848 1270 1569 1699 1396 810 710 492 293 170 178 210 81 21 59 46 91 45 27 96 48 43 15 17 20 43 172 175 150 150
0 0 0 0 0 0 0 0 0 0 0 0 0 0 0 0 0 0 161 892 1267 1508 1586 1278 926 512 392 264 210 179 19 50 107 75 49 85 185 90 3 40 12 34 15 23 97 169 154 148 134
0 0 0 0 0 0 0 0 0 0 0 0 0 0 0 0 0 0 128 827 1164 1443 1516 1187 931 849 518 441 184 317 38 44 52 41 22 53 221 30 27 32 50 21 12 7 75 150 166 110 124
0 0 0 0 0 0 0 0 0 0 0 0 0 0 0 0 0 0 5 533 994 1265 1394 1165 1009 576 645 441 207 158 28 4 43 20 2 32 20 35 26 29 35 14 24 33 54 90 163 147 112
0 0 0 0 0 0 0 0 0 0 0 0 0 0 0 0 0 1 6 162 693 1139 1305 1210 981 514 519 290 133 116 31 38 54 17 0 10 7 8 14 5 47 11 12 90 161 118 138 117 109
1 0 0 2 17 0 0 0 0 0 0 0 0 0 0 0 6 0 0 209 600 1045 1214 975 719 341 392 305 150 62 12 43 111 26 30 34 18 11 17 39 38 22 9 51 76 26 38 80 81
1 0 0 0 0 0 0 0 0 0 0 0 0 0 3 63 83 1 139 337 670 1039 654 395 560 194 149 179 81 70 66 66 31 64 15 53 6 24 14 23 10 33 43 38 48 22 20 32 64
0 0 0 0 0 0 0 0 12 0 0 0 0 0 140 348 307 0 282 397 612 861 399 178 313 132 118 80 51 69 39 11 16 49 91 78 32 43 49 23 10 8 11 9 7 0 1 2 25
40 43 29 2 0 0 0 2 14 7 6 1 7 0 0 267 526 64 137 535 632 708 466 161 217 148 135 38 17 88 56 41 28 26 7 12 7 8 21 1 7 17 4 2 0 6 0 1 0
79 52 11 54 0 0 4 26 23 23 18 6 5 3 0 0 237 92 269 449 594 249 198 201 186 157 126 57 10 7 30 35 18 0 1 29 31 30 34 0 6 2 20 1 2 8 0 0 0
68 88 34 26 55 0 0 108 0 0 0 0 0 0 3 64 189 136 206 229 180 172 77 153 136 164 138 92 4 7 5 22 15 2 0 8 3 0 3 0 12 8 3 3 7 2 2 0 9
45 44 69 20 2 69 78 46 27 0 1 0 6 1 78 186 91 30 7 18 72 87 78 250 145 174 142 62 7 8 11 26 34 24 4 5 17 5 0 0 0 5 7 0 10 1 8 11 0
CIN
0 0 0 0 0 0 0 0 0 0 0 0 0 0 0 0 0 0 -145 -133 -137 -120 -131 -248 -290 -204 -135 -92 -56 -12 -12 -12 -12 -12 -6 -1 -0 0 0 -0 -0 0 0 0 0 0 0 0 0
0 0 0 0 0 0 0 0 0 0 0 0 0 0 0 0 0 -129 -78 -151 -100 -78 -98 -152 -285 -220 -141 -97 -56 -19 -6 -6 -8 -4 -0 0 0 0 0 -1 -2 -0 0 0 0 0 0 0 0
0 0 0 0 0 0 0 0 0 0 0 0 0 0 0 0 -86 -69 -88 -116 -79 -75 -77 -102 -242 -195 -110 -72 -49 -36 -10 -8 -6 -0 0 0 0 0 0 -2 -2 0 0 0 0 0 -0 0 -0
0 0 0 0 0 0 0 0 0 0 0 0 0 0 0 -5 -79 -71 -101 -105 -83 -87 -98 -182 -262 -213 -117 -58 -28 -28 -15 -12 -7 -1 0 0 0 0 -0 -3 -3 0 0 0 0 0 0 -0 -11
0 0 0 0 0 0 0 0 0 0 0 0 0 0 0 -99 -89 -86 -85 -75 -85 -106 -123 -158 -264 -213 -143 -62 -16 -1 -17 -4 -4 -2 -1 -0 -0 0 -4 -4 -4 -2 -0 -0 0 0 0 -8 -20
0 0 0 0 0 0 0 0 0 0 0 0 0 0 0 -121 -68 -59 -78 -76 -87 -120 -111 -108 -197 -170 -136 -73 -32 -1 -10 -16 -3 -6 -8 -2 -8 -1 -13 -15 -10 -9 -9 -9 0 0 0 -12 -19
0 0 0 0 0 0 0 0 0 0 0 0 0 0 0 -124 -95 -74 -77 -79 -92 -119 -104 -83 -122 -99 -125 -82 -28 -7 -5 -24 -41 -17 -16 -10 -12 -6 -16 -23 -22 -19 -7 -1 0 0 -5 -20 -16
0 0 0 0 0 0 0 0 0 0 0 0 0 0 0 0 -109 -83 -77 -71 -81 -96 -73 -123 -70 -58 -31 -6 -35 -8 -15 -22 -39 -18 -17 -49 -45 -15 0 -7 -36 -22 -14 -0 -1 -0 -4 -14 -7
0 0 0 0 0 0 0 0 0 0 0 0 0 0 0 0 -119 -52 -66 -73 -82 -103 -81 -78 -62 -45 -32 0 -1 -5 -9 -26 -25 -19 -27 -18 -12 -21 0 -7 -15 -14 -21 -18 -9 -2 -6 -13 -1
0 0 0 0 0 0 0 0 0 0 0 0 0 0 0 0 -146 -43 -46 -60 -78 -95 -85 -58 -87 -15 -32 -2 0 0 0 0 0 0 -3 -1 -22 -12 0 -28 -28 -33 -20 -30 -32 -17 -16 -3 -0
0 0 0 0 0 0 0 0 0 0 0 0 0 0 0 0 -3 -99 -29 -36 -71 -88 -95 -59 -26 -23 -18 -13 -1 0 0 0 0 0 -0 0 -3 -6 -33 -44 -8 -15 -16 -2 -8 -17 -1 -1 -0
0 0 0 0 0 0 0 0 0 0 0 0 0 0 0 0 0 -54 -98 -58 -57 -89 -95 -91 -99 -88 -52 -23 -9 -0 0 0 0 0 0 -10 -2 -14 -20 -24 -4 -9 -0 -0 -1 0 0 -0 -0
0 0 0 0 0 0 0 0 0 0 0 0 0 0 0 0 0 0 -48 -76 -66 -68 -83 -105 -133 -149 -89 -57 -40 -0 -1 -4 -1 0 0 -0 -5 0 -8 0 -0 -16 -0 -13 -1 0 0 0 0
0 0 0 0 0 0 0 0 0 0 0 0 0 0 0 0 0 0 0 -86 -72 -83 -80 -96 -130 -111 -70 -83 -95 -13 0 -2 -4 -7 -0 0 -0 -2 -17 -15 0 0 -12 -15 -0 0 0 0 0
0 0 0 0 0 0 0 0 0 0 0 0 0 0 0 0 0 0 0 -68 -74 -103 -92 -120 -177 -146 -76 -66 -121 -38 -44 0 0 -1 -1 -8 -3 -6 -16 -19 -0 -1 -9 -15 -4 0 0 0 0
0 0 0 0 0 0 0 0 0 0 0 0 0 0 0 0 0 0 -69 -68 -88 -106 -119 -156 -237 -127 -62 -116 -86 -60 -11 -1 -3 -2 -5 -12 -5 0 0 -2 -1 -5 -2 -4 -0 0 0 0 0
0 0 0 0 0 0 0 0 0 0 0 0 0 0 0 0 0 0 -64 -73 -75 -106 -137 -157 -207 -144 -114 -141 -115 -82 -35 -77 -46 -21 -17 -3 -1 -0 0 -2 -0 -10 0 -0 -0 0 0 0 0
0 0 0 0 0 0 0 0 0 0 0 0 0 0 0 0 0 0 -65 -84 -98 -117 -122 -164 -261 -179 -134 -120 -153 -68 -70 -101 -59 -14 -2 -23 -0 -0 -1 0 -8 -3 0 0 -2 0 0 0 0
0 0 0 0 0 0 0 0 0 0 0 0 0 0 0 0 0 0 -81 -128 -139 -128 -108 -176 -251 -196 -164 -161 -141 -94 -45 -79 -123 -37 -18 -6 0 -1 -0 0 -7 0 -1 -2 -1 0 0 0 0
0 0 0 0 0 0 0 0 0 0 0 0 0 0 0 0 0 0 -91 -144 -169 -145 -137 -190 -211 -221 -183 -162 -140 -111 -109 -112 -57 -25 -27 -4 0 -0 -6 -2 -0 0 0 0 0 0 0 -0 0
0 0 0 0 0 0 0 0 0 0 0 0 0 0 0 0 0 0 -104 -146 -185 -159 -178 -195 -190 -146 -159 -120 -163 -85 -52 -69 -28 -39 -18 -6 0 -6 0 0 0 0 0 0 -0 0 0 0 0
0 0 0 0 0 0 0 0 0 0 0 0 0 0 0 0 0 0 -107 -141 -190 -184 -178 -165 -146 -174 -134 -124 -160 -123 -118 -18 -73 -26 0 -5 -28 -10 0 -3 0 -0 0 0 -0 0 0 0 0
0 -0 0 0 0 0 0 0 0 0 0 0 0 0 0 0 0 -42 -100 -109 -164 -189 -193 -161 -140 -181 -150 -161 -176 -137 -172 -125 -103 -32 0 -18 -6 -1 -2 0 0 0 0 0 0 0 0 0 0
0 0 0 0 0 0 0 0 0 0 0 0 0 0 0 0 -88 0 0 -165 -175 -207 -190 -198 -191 -220 -172 -161 -172 -175 -76 -118 -77 -29 0 -25 -3 -3 -2 0 0 -1 -9 -1 -2 -5 -7 0 0
0 0 0 0 0 0 0 0 0 0 0 0 0 0 -112 -129 -105 -29 -160 -202 -219 -234 -316 -343 -227 -270 -253 -188 -206 -166 -126 -136 -158 -115 0 -13 0 0 -2 -1 -1 -3 -0 -2 -4 -29 -22 -8 0
0 0 0 0 0 0 0 0 0 0 0 0 0 0 -69 -63 -89 -6 -170 -226 -250 -222 -349 -395 -277 -150 -72 -215 -188 -166 -170 0 -166 -143 -74 -45 0 0 0 0 0 0 -2 -1 -7 -9 -9 -1 -19
-4 -8 0 0 0 0 0 0 -5 0 0 0 -48 0 0 -160 -135 -96 -221 -210 -251 -245 -323 -371 -234 -181 -62 -45 -57 -161 -177 0 0 0 -143 -91 0 0 -0 -2 -0 0 0 -0 0 0 0 -0 0
-1 -2 -0 0 0 0 0 0 -1 0 0 0 0 0 0 0 -220 -268 -249 -246 -232 -360 -357 -317 -261 -148 -44 -54 0 0 0 0 -0 0 0 0 0 0 0 0 0 0 0 0 0 0 0 0 0
-1 0 0 0 0 0 0 -2 0 0 0 0 0 0 -60 -182 -177 -241 -236 -232 -320 -332 -386 -294 -223 -129 -78 -66 0 0 0 0 0 0 0 -1 -0 0 0 0 -0 0 -1 -0 0 0 0 0 0
0 -0 0 0 0 0 0 0 0 0 0 -1 -27 0 -56 -76 -164 -257 -203 -297 -298 -288 -298 -171 -161 -93 -94 -98 0 0 0 0 0 0 0 0 0 0 0 0 -0 0 -2 0 -5 -2 -2 -0 0
Wind_Speed
nan nan nan nan nan nan nan nan nan nan nan nan nan nan nan nan nan nan 21 32 31 37 37 38 34 31 32 30 30 26 28 32 33 36 39 40 38 36 37 35 33 31 34 34 32 29 30 28 28
nan nan nan nan nan nan nan nan nan nan nan nan nan nan nan nan nan 20 31 32 35 38 37 36 37 32 34 33 30 27 25 31 34 34 37 38 38 37 35 34 33 30 30 31 29 29 30 29 26
nan nan nan nan nan nan nan nan nan nan nan nan nan nan nan nan 19 20 27 36 39 39 37 37 41 36 34 33 34 28 27 28 33 34 35 35 37 36 33 31 31 30 27 28 31 31 30 29 28
nan nan nan nan nan nan nan nan nan nan nan nan nan nan nan nan 19 22 31 37 39 39 39 43 41 40 41 34 33 31 25 28 29 33 35 37 36 36 34 31 32 28 28 31 31 29 28 28 28
nan nan nan nan nan nan nan nan nan nan nan nan nan nan nan nan 24 25 30 37 42 42 40 40 40 42 38 36 34 32 26 28 29 30 36 38 36 36 36 33 29 27 27 31 33 28 28 27 28
nan nan nan nan nan nan nan nan nan nan nan nan nan nan nan 28 23 28 31 36 43 45 42 38 42 45 42 36 34 32 29 27 26 28 39 33 33 35 37 32 30 23 23 29 32 28 27 28 28
nan nan nan nan nan nan nan nan nan nan nan nan nan nan nan nan 24 27 33 37 45 47 43 37 39 45 42 35 36 26 29 28 29 25 28 28 21 23 31 33 24 17 19 28 31 28 29 30 29
nan nan nan nan nan nan nan nan nan nan nan nan nan nan nan nan 26 28 34 39 43 44 42 39 39 37 38 35 33 28 26 27 26 22 27 33 29 23 37 31 19 14 19 27 33 30 32 35 32
nan nan nan nan nan nan nan nan nan nan nan nan nan nan nan nan 29 31 34 38 41 41 40 42 40 33 34 32 33 28 23 26 30 29 35 33 26 26 31 27 17 38 27 22 29 34 37 37 36
nan nan nan nan nan nan nan nan nan nan nan nan nan nan nan nan 28 27 32 36 39 41 43 41 37 32 34 29 30 24 22 19 18 22 27 27 25 24 27 25 32 31 31 32 26 29 34 28 31
nan nan nan nan nan nan nan nan nan nan nan nan nan nan nan nan nan 27 26 31 36 39 41 33 31 32 33 30 29 24 20 22 17 21 25 25 24 25 nan 28 34 34 25 33 30 19 19 23 29
nan nan nan nan nan nan nan nan nan nan nan nan nan nan nan nan nan nan 25 27 35 37 38 33 30 35 34 32 27 23 21 23 20 21 28 28 25 25 27 26 25 32 27 27 25 17 17 21 24
nan nan nan nan nan nan nan nan nan nan nan nan nan nan nan nan nan nan nan 25 32 34 36 37 35 35 34 33 28 24 24 25 20 21 28 30 25 23 26 26 26 nan 17 17 25 18 17 14 28
nan nan nan nan nan nan nan nan nan nan nan nan nan nan nan nan nan nan nan 27 31 32 34 35 36 33 34 30 29 25 28 24 24 23 25 21 19 25 27 25 25 23 nan nan 22 21 15 13 21
nan nan nan nan nan nan nan nan nan nan nan nan nan nan nan nan nan nan nan 25 28 30 32 32 37 34 31 29 28 28 30 25 25 24 25 24 24 26 28 25 28 nan nan nan 25 21 16 17 17
nan nan nan nan nan nan nan nan nan nan nan nan nan nan nan nan nan nan nan 24 25 31 29 34 41 34 29 31 28 29 29 25 22 23 22 24 24 29 26 24 nan nan nan nan 33 27 19 20 20
nan nan nan nan nan nan nan nan nan nan nan nan nan nan nan nan nan nan 27 26 27 29 31 36 39 31 29 31 25 27 24 nan 22 23 24 22 20 21 21 19 25 nan nan nan 36 30 24 23 23
nan nan nan nan nan nan nan nan nan nan nan nan nan nan nan nan nan nan 33 31 32 28 31 37 35 31 31 26 22 22 19 nan nan 24 24 nan nan nan nan 24 nan nan nan nan 39 34 31 30 26
nan nan nan nan nan nan nan nan nan nan nan nan nan nan nan nan nan nan 30 33 31 26 32 35 32 30 32 22 21 19 18 nan nan nan nan nan nan nan nan nan nan nan nan nan nan 34 35 28 27
nan nan nan nan nan nan nan nan nan nan nan nan nan nan nan nan nan nan 26 28 25 23 31 32 32 31 27 20 18 16 nan nan 15 nan nan nan 11 nan nan nan nan nan nan nan nan 30 32 27 26
nan nan nan nan nan nan nan nan nan nan nan nan nan nan nan nan nan nan 24 23 21 20 31 29 29 31 22 18 16 16 nan nan nan nan nan nan 5 nan nan nan nan nan nan nan nan 27 15 20 15
nan nan nan nan nan nan nan nan nan nan nan nan nan nan nan nan nan nan nan 19 16 21 25 27 26 28 20 19 16 16 nan nan nan nan nan nan nan nan nan nan nan nan nan nan nan nan 16 14 10
nan nan nan nan nan nan nan nan nan nan nan nan nan nan nan nan nan nan nan 15 17 22 25 27 26 23 22 19 15 13 nan nan nan nan nan nan nan nan nan nan nan nan nan nan 20 15 13 17 16
nan nan nan nan nan nan nan nan nan nan nan nan nan nan nan nan nan nan nan 22 20 23 25 23 26 24 22 19 16 nan nan nan 9 nan nan nan nan nan nan nan nan nan nan nan nan nan nan nan nan
nan nan nan nan nan nan nan nan nan nan nan nan nan nan nan nan nan nan 21 22 21 21 25 21 24 25 22 18 nan nan nan nan nan nan nan nan nan nan nan nan nan nan nan nan nan nan nan nan nan
nan nan nan nan nan nan nan nan nan nan nan nan nan nan 32 31 32 nan 28 25 22 21 26 19 24 25 22 nan nan nan nan nan nan nan nan nan nan nan nan nan nan nan nan nan nan nan nan nan nan
nan nan nan nan nan nan nan nan nan nan nan nan nan nan nan 43 41 nan 26 25 25 24 29 20 24 25 22 nan nan nan nan nan nan nan nan nan nan nan nan nan nan nan nan nan nan nan nan nan nan
nan nan nan nan nan nan nan nan nan nan nan nan nan nan nan nan 46 nan 33 35 30 33 30 23 27 22 17 nan nan nan nan nan nan nan nan nan nan nan nan nan nan nan nan nan nan nan nan nan nan
nan nan nan nan nan nan nan 17 nan nan nan nan nan nan nan nan 49 45 43 37 45 34 nan 28 29 26 18 nan nan nan nan nan nan nan nan nan nan nan nan nan nan nan nan nan nan nan nan nan nan
nan nan nan nan nan nan nan nan nan nan nan nan nan nan nan 49 nan nan nan nan nan nan nan 32 30 24 22 nan nan nan nan nan nan nan nan nan nan nan nan nan nan nan nan nan nan nan nan nan nan
Wind_Direction
nan nan nan nan nan nan nan nan nan nan nan nan nan nan nan nan nan nan 289 305 310 313 314 318 316 313 307 304 301 301 308 311 312 313 312 308 307 302 294 299 301 297 287 282 278 273 265 256 251
nan nan nan nan nan nan nan nan nan nan nan nan nan nan nan nan nan 294 303 305 310 310 312 318 315 315 313 304 299 297 305 310 312 313 312 312 307 309 300 297 298 300 291 285 276 271 264 260 251
nan nan nan nan nan nan nan nan nan nan nan nan nan nan nan nan 295 295 288 307 307 310 313 312 312 308 305 301 299 294 300 307 313 312 313 312 312 308 306 295 294 303 295 283 274 266 261 257 250
nan nan nan nan nan nan nan nan nan nan nan nan nan nan nan nan 281 293 297 304 305 308 310 300 309 307 305 301 296 293 302 299 306 307 309 311 307 305 299 292 288 296 297 288 270 262 253 253 253
nan nan nan nan nan nan nan nan nan nan nan nan nan nan nan nan 292 291 297 303 304 305 305 305 305 301 304 301 295 293 295 293 302 306 304 305 303 298 293 283 282 282 294 285 264 254 250 246 248
nan nan nan nan nan nan nan nan nan nan nan nan nan nan nan 255 285 289 291 299 298 306 305 303 300 298 302 300 293 293 295 298 296 309 304 299 294 284 286 281 267 267 282 278 263 244 243 244 240
nan nan nan nan nan nan nan nan nan nan nan nan nan nan nan nan 266 280 291 288 296 302 303 299 295 303 302 297 292 289 288 299 301 310 300 307 280 290 293 296 265 259 263 275 262 241 244 241 239
nan nan nan nan nan nan nan nan nan nan nan nan nan nan nan nan 271 282 282 281 296 299 296 295 298 305 301 294 288 285 282 291 290 290 284 299 301 290 263 239 268 291 273 272 266 244 238 237 234
nan nan nan nan nan nan nan nan nan nan nan nan nan nan nan nan 275 279 280 285 293 296 295 298 294 306 292 291 289 279 285 285 281 282 287 291 293 286 280 280 270 281 263 270 264 254 243 236 231
nan nan nan nan nan nan nan nan nan nan nan nan nan nan nan nan 278 278 281 283 295 299 297 292 302 303 296 284 284 287 285 286 297 290 295 294 292 286 292 277 287 269 267 264 264 257 255 251 228
nan nan nan nan nan nan nan nan nan nan nan nan nan nan nan nan nan 271 278 289 295 294 292 303 303 301 296 279 276 268 267 275 287 302 299 292 284 283 nan 268 269 247 262 249 240 249 254 249 231
nan nan nan nan nan nan nan nan nan nan nan nan nan nan nan nan nan nan 272 292 291 292 299 305 302 298 292 279 273 260 257 269 280 295 303 294 284 284 280 270 265 232 241 241 229 236 251 242 232
nan nan nan nan nan nan nan nan nan nan nan nan nan nan nan nan nan nan nan 281 291 295 300 294 292 291 293 279 264 255 263 266 275 284 300 299 292 288 275 266 258 nan 221 228 226 239 236 251 230
nan nan nan nan nan nan nan nan nan nan nan nan nan nan nan nan nan nan nan 281 291 297 299 295 292 290 292 277 265 254 258 268 275 280 289 300 295 286 277 266 252 220 nan nan 215 234 239 246 230
nan nan nan nan nan nan nan nan nan nan nan nan nan nan nan nan nan nan nan 272 286 294 299 297 296 291 291 280 267 256 252 260 274 282 296 290 295 288 273 259 237 nan nan nan 214 235 253 248 231
nan nan nan nan nan nan nan nan nan nan nan nan nan nan nan nan nan nan nan 267 288 293 299 297 295 294 286 276 269 261 258 266 275 281 289 291 293 291 273 254 nan nan nan nan 213 233 255 249 237
nan nan nan nan nan nan nan nan nan nan nan nan nan nan nan nan nan nan 251 264 278 290 294 295 292 297 289 279 275 265 268 nan 278 280 280 293 298 290 267 243 243 nan nan nan 217 231 245 251 244
nan nan nan nan nan nan nan nan nan nan nan nan nan nan nan nan nan nan 246 260 271 285 291 294 291 302 289 285 268 259 270 nan nan 282 280 nan nan nan nan 233 nan nan nan nan 218 233 250 253 252
nan nan nan nan nan nan nan nan nan nan nan nan nan nan nan nan nan nan 243 260 271 284 296 299 296 309 287 277 262 261 274 nan nan nan nan nan nan nan nan nan nan nan nan nan nan 234 249 252 264
nan nan nan nan nan nan nan nan nan nan nan nan nan nan nan nan nan nan 252 263 274 283 291 297 305 310 291 268 261 266 nan nan 298 nan nan nan 273 nan nan nan nan nan nan nan nan 239 247 264 272
nan nan nan nan nan nan nan nan nan nan nan nan nan nan nan nan nan nan 260 258 265 287 290 300 305 304 282 274 272 282 nan nan nan nan nan nan 282 nan nan nan nan nan nan nan nan 242 272 264 261
nan nan nan nan nan nan nan nan nan nan nan nan nan nan nan nan nan nan nan 253 270 270 283 294 303 294 279 277 285 307 nan nan nan nan nan nan nan nan nan nan nan nan nan nan nan nan 236 254 262
nan nan nan nan nan nan nan nan nan nan nan nan nan nan nan nan nan nan nan 249 241 263 278 285 297 290 275 279 288 298 nan nan nan nan nan nan nan nan nan nan nan nan nan nan 243 245 240 250 262
nan nan nan nan nan nan nan nan nan nan nan nan nan nan nan nan nan nan nan 224 250 256 268 284 297 284 272 279 294 nan nan nan 344 nan nan nan nan nan nan nan nan nan nan nan nan nan nan nan nan
nan nan nan nan nan nan nan nan nan nan nan nan nan nan nan nan nan nan 225 232 257 261 268 280 292 283 275 279 nan nan nan nan nan nan nan nan nan nan nan nan nan nan nan nan nan nan nan nan nan
nan nan nan nan nan nan nan nan nan nan nan nan nan nan 207 198 201 nan 221 231 249 247 261 273 286 283 276 nan nan nan nan nan nan nan nan nan nan nan nan nan nan nan nan nan nan nan nan nan nan
nan nan nan nan nan nan nan nan nan nan nan nan nan nan nan 197 201 nan 219 232 235 245 259 259 278 283 284 nan nan nan nan nan nan nan nan nan nan nan nan nan nan nan nan nan nan nan nan nan nan
nan nan nan nan nan nan nan nan nan nan nan nan nan nan nan nan 199 nan 221 230 227 234 247 255 269 275 277 nan nan nan nan nan nan nan nan nan nan nan nan nan nan nan nan nan nan nan nan nan nan
nan nan nan nan nan nan nan 254 nan nan nan nan nan nan nan nan 207 210 227 242 222 226 nan 252 265 269 264 nan nan nan nan nan nan nan nan nan nan nan nan nan nan nan nan nan nan nan nan nan nan
nan nan nan nan nan nan nan nan nan nan nan nan nan nan nan 207 nan nan nan nan nan nan nan 246 256 260 265 nan nan nan nan nan nan nan nan nan nan nan nan nan nan nan nan nan nan nan nan nan nan